www.pogodaiklimat.ru

Погода и климат >> Архив погоды >> Иран >> Kashan


ПОГОДА в Kashan

  • Прогноз погоды в Kashan
  • Монитор погоды в Kashan
  • Климат города

АРХИВ ПОГОДЫ в Kashan

Время (UTC), дата Ветер
(напр.,м/с)
 
Видим.   Явления Облачность Т
(С)
Тd
(С)
f
(%)
Тe
(С)
Тes
(С)
Комфортность P
(гПа)
Po
(гПа)
Тmin
(С)
Tmax
(С)
R
(мм)
R24
(мм)
S
(см)
09 12.11 штиль 0 10 км 10/6 900 м
[Cb calv As op]
+14.0 +12.2 89 +14 +14 1020.2 912.2
12 12.11 штиль 0 10 км 10/5 900 м
[Cb calv As op]
+14.6 +10.6 77 +14 +15 1019.8 911.8
15 12.11 штиль 0 10 км 9/5 900 м
[Cb calv As trans]
+13.2 +11.4 89 +13 +13 1020.8 912.5 +15.2
18 12.11 штиль 0 10 км 8/4 1050 м
[Sc As trans]
+12.6 +11.5 93 +12 +12 1019.7 911.8
21 12.11 штиль 0 10 км 6/3 1200 м
[Sc Ac trans]
+10.2 +9.4 95 +9 +9 1020.3 911.8
00 13.11 штиль 0 10 км 5/0
[Ac trans]
+10.2 +9.4 95 +9 +9 1019.9 911.5
03 13.11 штиль 0 10 км 4/0
[Ac trans]
+9.4 +8.6 95 +9 +9 1020.0 911.2 +9.2
06 13.11 штиль 0 10 км 8/4 1200 м
[Sc As trans]
+11.8 +11.1 95 +11 +13 1021.3 912.7
09 13.11 штиль 0 10 км 8/5 1200 м
[Sc As trans]
+14.4 +8.8 69 +14 +17 1019.6 911.2
12 13.11 З 2 10 км 9/5 1200 м
[Sc As trans]
+11.4 +5.2 66 +10 +11 1019.7 910.6
15 13.11 С 2 10 км 8/3 1200 м
[Sc As trans]
+12.4 +10.6 89 +11 +11 1020.8 911.8 +16.2
18 13.11 штиль 0 10 км 10/4 1200 м
[Sc As op]
+11.0 +10.2 95 +10 +10 1022.0 913.1
21 13.11 штиль 0 10 км 10/4 1200 м
[Sc As op]
+11.4 +9.9 90 +11 +11 1020.9 912.6
00 14.11 штиль 0 600 м туман 9/4 1200 м
[Sc As trans]
+10.6 +10.6 100 +10 +10 1021.4 912.4
03 14.11 штиль 0 600 м туман 9/4 1200 м
[Sc As trans]
+10.2 +10.2 100 +9 +9 1021.3 912.4 +10.2
06 14.11 штиль 0 8000 м дымка {туман} 10/4 1050 м
[Sc As op]
+11.6 +10.5 93 +11 +12 1021.7 912.8
09 14.11 СВ 2 8000 м мгла 9/4 1200 м
[Sc As trans]
+14.0 +9.6 75 +14 +16 1019.3 911.0
12 14.11 ЮЗ 2 8000 м мгла 10/4 1200 м
[Sc As op]
+14.0 +8.7 70 +14 +14 1018.1 909.8
15 14.11 З 3 8000 м мгла 10/4 1200 м
[Sc As op]
+13.2 +9.1 76 +12 +12 1018.0 909.5 +14.4
18 14.11 штиль 0 10 км 9/3 1200 м
[Sc As trans]
+13.0 +8.8 76 +13 +13 1018.1 909.8
21 14.11 Ю 2 10 км 8/3 1200 м
[Sc As trans]
+12.2 +8.8 80 +11 +11 1016.3 908.5
00 15.11 штиль 0 10 км в посл. час дождь 10/6 1050 м
[Cb cap As op]
+10.2 +9.8 97 +9 +9 1016.1 908.0 0.2
03 15.11 штиль 0 8000 м дождь 10/5 1050 м
[Sc As op]
+8.8 +8.4 97 +8 +8 1019.7 910.7 +8.8
06 15.11 штиль 0 8000 м слабый дождь 10/5 900 м
[Sc As op]
+10.0 +9.6 97 +9 +10 1020.7 911.9 4
09 15.11 штиль 0 8000 м дымка {дождь} 10/5 1050 м
[Sc As op]
+10.6 +7.4 81 +10 +11 1020.6 911.7
12 15.11 штиль 0 8000 м дымка 10/5 1050 м
[Sc As op]
+10.6 +8.3 86 +10 +10 1020.9 911.7
15 15.11 штиль 0 8000 м дымка 10/5 1050 м
[Sc As op]
+10.2 +8.2 87 +9 +9 1022.1 912.4 +11.2
18 15.11 штиль 0 6000 м дымка {дождь} 10/5 1050 м
[Sc As op]
+10.4 +8.9 90 +10 +10 1022.3 912.8 0.1
21 15.11 штиль 0 6000 м слабый дождь 10/5 1050 м
[Sc As op]
+10.0 +9.2 95 +9 +9 1021.8 912.4
00 16.11 штиль 0 6000 м дымка {дождь} 10/5 1050 м
[Sc As op]
+9.2 +8.4 95 +8 +8 1021.5 912.0 0.3
03 16.11 штиль 0 6000 м дымка {дождь} 10/5 1050 м
[Sc As op]
+8.8 +7.2 90 +8 +8 1022.3 912.6 +8.8
06 16.11 СЗ 2 8000 м дымка 10/5 1200 м
[Sc As op]
+8.6 +8.2 97 +7 +7 1023.6 913.7 0.2
09 16.11 штиль 0 10 км 8/3 1200 м
[Sc As trans]
+10.8 +8.1 83 +10 +14 1021.2 911.9
12 16.11 штиль 0 10 км 10/4 1200 м
[Sc As op]
+11.8 +7.0 72 +11 +12 1021.9 912.5
15 16.11 штиль 0 8000 м в посл. час дождь 10/5 1200 м
[Sc As op]
+9.2 +8.8 97 +8 +8 1024.7 914.6 +12.0
18 16.11 штиль 0 8000 м дымка {дождь} 6/4 1050 м
[Sc As trans]
+8.6 +8.2 97 +8 +8 1023.7 913.5 18
21 16.11 штиль 0 8000 м дымка 3/0
[Ac trans]
+7.6 +7.2 97 +7 +7 1023.7 913.7
00 17.11 штиль 0 6000 м дымка ясно +6.2 +5.8 97 +5 +5 1023.9 913.7
03 17.11 штиль 0 6000 м дымка ясно +6.0 +5.6 97 +5 +5 1024.4 913.7 +6.0
06 17.11 штиль 0 10 км ясно +10.4 +7.2 81 +10 +15 1024.6 914.6
09 17.11 штиль 0 10 км 1/1 1200 м
[Cu hum]
+17.0 +7.5 54 +17 +26 1021.1 912.5
12 17.11 СВ 3 10 км ясно +19.0 +6.4 44 +20 +21 1019.6 911.2
15 17.11 штиль 0 10 км ясно +15.0 +8.2 64 +15 +15 1021.7 912.4 +19.4
18 17.11 штиль 0 10 км ясно +12.6 +8.4 76 +12 +12 1022.0 913.0
21 17.11 штиль 0 10 км ясно +10.2 +7.4 83 +10 +10 1020.8 912.4
00 18.11 штиль 0 8000 м дымка ясно +7.6 +6.4 92 +7 +7 1020.0 911.8
03 18.11 штиль 0 10 км ясно +6.2 +5.3 94 +5 +5 1021.4 912.0 +6.0
06 18.11 штиль 0 10 км ясно +11.6 +6.8 72 +11 +16 1021.7 912.9
09 18.11 штиль 0 10 км ясно +17.8 +6.2 47 +18 +28 1019.0 911.2
12 18.11 ЮВ 2 10 км 6/0
[Ci sp]
+19.2 +5.1 39 +20 +22 1017.7 909.7
15 18.11 штиль 0 10 км 4/0
[Ci sp]
+15.2 +7.5 60 +15 +15 1019.0 910.0 +19.8
18 18.11 штиль 0 10 км ясно +12.0 +8.6 80 +11 +11 1019.4 910.8
21 18.11 штиль 0 10 км ясно +10.0 +8.4 90 +9 +9 911.2
00 19.11 штиль 0 10 км ясно +9.2 +7.6 90 +8 +8 1018.4 910.7
03 19.11 штиль 0 10 км ясно +6.8 +5.5 91 +6 +6 1020.5 911.4 +6.6
06 19.11 штиль 0 10 км ясно +11.4 +6.1 70 +11 +16 1020.3 911.5

 

Местоположение метеостанции Kashan (Иран): широта 33.98 долгота 51.45 высота над уровнем моря 982 м.

В архиве по умолчанию представлена погода в Kashan за последнюю неделю. Архивные данные за месяц целиком и за предыдущие месяцы, начиная с января 2011 года, Вы можете получить, выбрав интересующий диапазон дат из раскрывающегося списка и нажав кнопку "Ввод!".


*Определитесь, кто Вы:
робот инопланетянин человек

Внимание! Время в таблицах - всемирное. Для получения местного времени необходимо прибавить поправку, которая в Kashan равна 3.5 ч.

Смотрите также архив погоды в соседних городах и на ближайших метеорологических станциях:

Погода в Arak (Иран) (155 км)
Погода в Esfahan (Иран) (169 км)
Погода в Ali-Goodarz (Иран) (176 км)
Погода в Tehran (Иран) (189 км)
Погода в Shahre-Kord (Иран) (197 км)
Погода в Semnan (Иран) (248 км)
Погода в Hamedan (Иран) (285 км)
Погода в Ghazvin (Иран) (285 км)
Погода в Khorram Abad (Иран) (290 км)
Погода в Noshahr (Иран) (297 км)

Пояснения к столбцам:

Ветер - указаны скорость ветра в м/с - средняя за 10 мин, порывы в срок и между сроками (в фигурных скобках) и направление, откуда дует ветер: С - северный, СВ - северо-восточный, В - восточный, ЮВ - юго-восточный, Ю - южный, ЮЗ - юго-западный, З - западный, СЗ - северо-западный.
Видимость - горизонтальная дальность видимости в метрах или километрах. При видимости от 1 до 10 км при отсутствии осадков обычно наблюдается дымка, при ухудшении видимости до 1 км и менее - туман. В сухую погоду видимость может ухудшаться дымом, пылью или мглою.
Явления - указаны атмосферные явления, наблюдавшиеся в срок или в последний час перед сроком; фигурными скобками обозначены явления, наблюдавшиеся между сроками (за 1-3 часа до срока); квадратными скобками обозначены град или гололедные отложения с указанием их диаметра в мм.
Облачность - указаны через наклонную черту общая и нижняя облачность в баллах и высота нижней границы облаков в метрах; квадратными скобками обозначены формы облаков: Ci - перистые, Cs - перисто-слоистые, Cc - перисто-кучевые, Ac - высококучевые, As - высокослоистые, Sc - слоисто-кучевые, Ns - слоисто-дождевые, Cu - кучевые, Cb - кучево-дождевые. Подробнее классификацию облаков см. в Атласе облаков (PDF).
T - Температура воздуха - температура, измеренная на высоте 2 м над землей.
Td - Температура точки росы - температура, при понижении до которой содержащийся в воздухе водяной пар достигнет насыщения.
f - Относительная влажность воздуха - влажноcть воздуха, измеренная на высоте 2 м над землей.
Te - Эффективная температура - температура, которую ощущает одетый по сезону человек в тени. Характеристика душности погоды. При расчете учитывается влияние влажности воздуха и скорости ветра на теплоощущения человека.
Tes - Эффективная температура на солнце - температура, которую ощущает человек, с поправкой на солнечный нагрев. Характеристика знойности погоды. Зависит от высоты солнца над горизонтом, облачности и скорости ветра. Ночью, в пасмурную погоду, а также при ветре 12 м/с и более поправка равна нулю.
P - Атмосферное давление - приведенное к уровню моря атмосферное давление.
Po - Атмосферное давление - измеренное на уровне метеостанции атмосферное давление.
Tmin - Минимальная температура - минимум температуры воздуха на высоте 2 м над землей.
Tmax - Максимальная температура - максимум температуры воздуха на высоте 2 м над землей.
R - Количество осадков - Количество выпавших осадков за период времени, мм. При наведении курсора мыши на число - период времени, за который выпало указанное количество осадков.
R24 - Количество осадков - Количество выпавших осадков за 24 часа, мм.
S - Снежный покров - Высота снежного покрова, см. При наведении курсора мыши на число - состояние снежного покрова и степень покрытия местности в баллах.